Weather History for Stefansson Island, NT

Change the Weather History Date:

Friday, October 26, 2012

  Actual Average Record
Temperature  
Mean Temperature -10 °F -  
Max Temperature -5 °F - - ()
Min Temperature -15 °F - - ()
Degree Days  
Heating Degree Days 75    
Moisture  
Dew Point -14 °F    
Average Humidity 81    
Maximum Humidity 85    
Minimum Humidity 69    
Precipitation  
Precipitation 0.00 in - - ()
Sea Level Pressure  
Sea Level Pressure 30.49 in    
Wind  
Wind Speed 3 mph ()    
Max Wind Speed 7 mph    
Max Gust Speed -    
T = Trace of Precipitation, MM = Missing Value Source: Averaged Metar Reports

Daily Weather History Graph

Daily Weather History Graph

Search for Another Location

Airport:

Trip Planner

Search our weather history database for the weather conditions in past years. The results will help you decide how hot, cold, wet, or windy it might be!

Date:

Astronomy

Oct. 26, 2012 Rise Set
Actual Time 9:50 AM MDT 3:38 PM MDT
Civil Twilight 8:17 AM MDT 5:11 PM MDT
Nautical Twilight 6:47 AM MDT 6:40 PM MDT
Astronomical Twilight 5:20 AM MDT 8:06 PM MDT
Moon 3:36 PM MDT (10/26) 4:47 AM MDT (10/26)
Length of Visible Light 8h 53m
Length of Day
5h 48m
Waxing Gibbous, 91% of the Moon is Illuminated
Oct 26
Waxing Gibbous
Oct 29
Full
Nov 6
Last Quarter
Nov 13
New
Nov 20
First Quarter

Hourly Weather History & Observations

Time (MDT) Temp. Windchill Dew Point Humidity Pressure Visibility Wind Dir Wind Speed Gust Speed Precip Events Conditions
12:00 AM -6 °F - -9 °F 79% 30.54 in - Calm Calm - -  
12:00 AM -5.6 °F - -9.0 °F 85% 30.54 in - Calm Calm - N/A   Unknown
1:00 AM -7.4 °F - -11.2 °F 84% 30.54 in - Calm Calm - N/A   Unknown
2:00 AM -7.6 °F - -11.6 °F 83% 30.53 in - Calm Calm - N/A   Unknown
3:00 AM -9.4 °F - -13.7 °F 81% 30.53 in - Calm Calm - N/A   Unknown
4:00 AM -13.2 °F - -17.7 °F 80% 30.53 in - Calm Calm - N/A   Unknown
5:00 AM -13.4 °F -23.1 °F -17.9 °F 80% 30.53 in - WSW 3.5 mph - N/A   Unknown
6:00 AM -15 °F - -19 °F 69% 30.52 in - WSW 3.5 mph - -  
6:00 AM -14.8 °F -24.8 °F -19.5 °F 79% 30.52 in - WSW 3.5 mph - N/A   Unknown
9:00 AM -12.3 °F -26.1 °F -16.8 °F 80% 30.51 in - WSW 5.8 mph - N/A   Unknown
10:00 AM -14.1 °F -26.3 °F -18.4 °F 81% 30.50 in - WSW 4.6 mph - N/A   Unknown
11:00 AM -8.9 °F -23.6 °F -13.0 °F 82% 30.50 in - West 6.9 mph - N/A   Unknown
12:00 PM -9 °F - -13 °F 71% 30.49 in - WSW 5.8 mph - -  
12:00 PM -9.2 °F -22.5 °F -13.4 °F 82% 30.49 in - WSW 5.8 mph - N/A   Unknown
1:00 PM -7.2 °F -20.1 °F -11.2 °F 83% 30.48 in - West 5.8 mph - N/A   Unknown
2:00 PM -9.4 °F -20.9 °F -13.5 °F 82% 30.48 in - WSW 4.6 mph - N/A   Unknown
3:00 PM -9.6 °F -24.5 °F -13.7 °F 82% 30.47 in - West 6.9 mph - N/A   Unknown
4:00 PM -10.7 °F -24.2 °F -14.8 °F 82% 30.47 in - West 5.8 mph - N/A   Unknown
5:00 PM -11.4 °F -23.2 °F -15.5 °F 82% 30.47 in - WSW 4.6 mph - N/A   Unknown
6:00 PM -11 °F - -15 °F 73% 30.45 in - West 5.8 mph - -  
6:00 PM -10.7 °F -24.2 °F -15.0 °F 81% 30.45 in - West 5.8 mph - N/A   Unknown
7:00 PM -9.4 °F -22.7 °F -13.4 °F 83% 30.44 in - West 5.8 mph - N/A   Unknown
8:00 PM -8.7 °F -20.0 °F -12.6 °F 83% 30.43 in - West 4.6 mph - N/A   Unknown
9:00 PM -10.7 °F -24.2 °F -14.8 °F 82% 30.43 in - WSW 5.8 mph - N/A   Unknown
10:00 PM -8.7 °F -21.9 °F -12.5 °F 83% 30.41 in - West 5.8 mph - N/A   Unknown
11:00 PM -9.2 °F -20.7 °F -13.4 °F 82% 30.40 in - West 4.6 mph - N/A   Unknown